| time (UTC) | temp C | wind direction | speed KPH | gust KPH | rain 1hr cm | rain 24hr cm | rain mn cm | humidity % | barometer mb |
| 20260508193034 | 19 | 76 | 9.7 | 27.4 | 0.00 | 0.00 | 0.00 | 37 | 1007.1 |
| 20260508191532 | 19 | 65 | 9.7 | 22.5 | 0.00 | 0.00 | 0.00 | 38 | 1007.3 |
| 20260508190036 | 19 | 33 | 9.7 | 20.9 | 0.00 | 0.00 | 0.00 | 38 | 1007.5 |
| 20260508184533 | 18 | 75 | 9.7 | 17.7 | 0.00 | 0.00 | 0.00 | 38 | 1007.7 |
| 20260508183027 | 18 | 53 | 9.7 | 25.7 | 0.00 | 0.00 | 0.00 | 41 | 1007.9 |
| 20260508181522 | 18 | 66 | 11.3 | 19.3 | 0.00 | 0.00 | 0.00 | 42 | 1008.1 |
| 20260508180019 | 18 | 116 | 8.0 | 17.7 | 0.00 | 0.00 | 0.00 | 43 | 1008.3 |
| 20260508174522 | 17 | 140 | 11.3 | 20.9 | 0.00 | 0.00 | 0.00 | 41 | 1008.5 |
| 20260508173014 | 17 | 50 | 16.1 | 24.1 | 0.00 | 0.00 | 0.00 | 43 | 1008.8 |
| 20260508171512 | 17 | 143 | 9.7 | 19.3 | 0.00 | 0.00 | 0.00 | 43 | 1008.8 |
| 20260508170010 | 17 | 45 | 12.9 | 24.1 | 0.00 | 0.00 | 0.00 | 44 | 1009.1 |
| 20260508164512 | 16 | 78 | 14.5 | 27.4 | 0.00 | 0.00 | 0.00 | 44 | 1009.2 |
| 20260508163006 | 16 | 50 | 17.7 | 27.4 | 0.00 | 0.00 | 0.00 | 45 | 1009.2 |
| 20260508161510 | 16 | 27 | 14.5 | 25.7 | 0.00 | 0.00 | 0.00 | 46 | 1009.3 |
| 20260508160005 | 16 | 75 | 16.1 | 24.1 | 0.00 | 0.00 | 0.00 | 48 | 1009.5 |
| 20260508154501 | 15 | 34 | 14.5 | 25.7 | 0.00 | 0.00 | 0.00 | 50 | 1009.4 |
| 20260508153100 | 15 | 56 | 14.5 | 24.1 | 0.00 | 0.00 | 0.00 | 48 | 1009.5 |
| 20260508151558 | 15 | 47 | 12.9 | 27.4 | 0.00 | 0.00 | 0.00 | 51 | 1009.6 |
| 20260508150056 | 15 | 20 | 12.9 | 20.9 | 0.00 | 0.00 | 0.00 | 50 | 1009.9 |
| 20260508144555 | 14 | 246 | 4.8 | 11.3 | 0.00 | 0.00 | 0.00 | 51 | 1009.1 |
| 20260508143054 | 13 | 144 | 0.0 | 4.8 | 0.00 | 0.00 | 0.00 | 57 | 1009.3 |
| 20260508141554 | 12 | 237 | 1.6 | 8.0 | 0.00 | 0.00 | 0.00 | 63 | 1009.3 |
| 20260508140052 | 11 | 237 | 1.6 | 6.4 | 0.00 | 0.00 | 0.00 | 64 | 1009.5 |
| 20260508134550 | 11 | 326 | 1.6 | 4.8 | 0.00 | 0.00 | 0.00 | 64 | 1009.6 |
| 20260508133048 | 11 | 326 | 0.0 | 6.4 | 0.00 | 0.00 | 0.00 | 62 | 1009.7 |
| 20260508131549 | 10 | 326 | 0.0 | 6.4 | 0.00 | 0.00 | 0.00 | 64 | 1009.7 |
| 20260508130105 | 9 | 185 | 0.0 | 0.0 | 0.00 | 0.00 | 0.00 | 71 | 1009.7 |
| 20260508124541 | 8 | 185 | 0.0 | 0.0 | 0.00 | 0.00 | 0.00 | 72 | 1009.6 |
| 20260508123040 | 7 | 184 | 0.0 | 0.0 | 0.00 | 0.00 | 0.00 | 73 | 1009.5 |
| 20260508121547 | 7 | 184 | 0.0 | 0.0 | 0.00 | 0.00 | 0.00 | 74 | 1009.3 |
| 20260508120039 | 7 | 184 | 0.0 | 0.0 | 0.00 | 0.00 | 0.00 | 74 | 1009.3 |
| 20260508114536 | 7 | 185 | 0.0 | 3.2 | 0.00 | 0.00 | 0.00 | 73 | 1009.1 |
| 20260508113041 | 8 | 171 | 0.0 | 1.6 | 0.00 | 0.00 | 0.00 | 71 | 1009.1 |
| 20260508111532 | 8 | 171 | 0.0 | 0.0 | 0.00 | 0.00 | 0.00 | 69 | 1009.1 |
| 20260508110031 | 8 | 171 | 4.8 | 8.0 | 0.00 | 0.00 | 0.00 | 69 | 1009.0 |
| 20260508104543 | 8 | 16 | 0.0 | 0.0 | 0.00 | 0.00 | 0.00 | 71 | 1009.1 |
| 20260508103035 | 8 | 16 | 0.0 | 0.0 | 0.00 | 0.00 | 0.00 | 72 | 1008.9 |
| 20260508101527 | 8 | 16 | 0.0 | 0.0 | 0.00 | 0.00 | 0.00 | 69 | 1009.2 |
| 20260508100023 | 9 | 16 | 0.0 | 4.8 | 0.00 | 0.00 | 0.00 | 67 | 1009.4 |
| 20260508094519 | 10 | 16 | 0.0 | 0.0 | 0.00 | 0.00 | 0.00 | 64 | 1009.2 |
| 20260508093018 | 10 | 16 | 0.0 | 0.0 | 0.00 | 0.00 | 0.00 | 63 | 1009.2 |
| 20260508091516 | 11 | 16 | 0.0 | 0.0 | 0.00 | 0.00 | 0.00 | 60 | 1009.2 |
| 20260508090015 | 11 | 16 | 0.0 | 0.0 | 0.00 | 0.00 | 0.00 | 59 | 1009.1 |
| 20260508084507 | 12 | 16 | 0.0 | 0.0 | 0.00 | 0.00 | 0.00 | 57 | 1009.3 |
| 20260508083002 | 13 | 16 | 0.0 | 3.2 | 0.00 | 0.00 | 0.00 | 54 | 1009.2 |
| 20260508081602 | 13 | 351 | 3.2 | 9.7 | 0.00 | 0.00 | 0.00 | 48 | 1009.4 |
| 20260508080111 | 13 | 40 | 4.8 | 12.9 | 0.00 | 0.00 | 0.00 | 48 | 1009.4 |
| 20260508074557 | 13 | 20 | 8.0 | 14.5 | 0.00 | 0.00 | 0.00 | 48 | 1009.3 |
| 20260508073058 | 13 | 1 | 6.4 | 11.3 | 0.00 | 0.00 | 0.00 | 49 | 1009.5 |
| 20260508071600 | 13 | 36 | 4.8 | 9.7 | 0.00 | 0.00 | 0.00 | 48 | 1009.6 |
| 20260508070137 | 13 | 33 | 4.8 | 11.3 | 0.00 | 0.00 | 0.00 | 49 | 1009.8 |
| 20260508064605 | 14 | 13 | 4.8 | 8.0 | 0.00 | 0.00 | 0.00 | 47 | 1009.9 |
| 20260508063050 | 14 | 25 | 4.8 | 11.3 | 0.00 | 0.00 | 0.00 | 45 | 1009.8 |
| 20260508061549 | 15 | 26 | 9.7 | 16.1 | 0.00 | 0.00 | 0.00 | 43 | 1009.7 |
| 20260508060045 | 14 | 32 | 9.7 | 19.3 | 0.00 | 0.00 | 0.00 | 46 | 1009.8 |
| 20260508054544 | 14 | 1 | 3.2 | 8.0 | 0.00 | 0.00 | 0.00 | 46 | 1009.6 |
| 20260508053045 | 14 | 340 | 0.0 | 4.8 | 0.00 | 0.00 | 0.00 | 45 | 1009.4 |
| 20260508051542 | 13 | 274 | 3.2 | 9.7 | 0.00 | 0.00 | 0.00 | 50 | 1009.6 |
| 20260508050041 | 13 | 290 | 0.0 | 1.6 | 0.00 | 0.00 | 0.00 | 49 | 1009.8 |
| 20260508044541 | 13 | 290 | 0.0 | 1.6 | 0.00 | 0.00 | 0.00 | 49 | 1009.9 |
| 20260508043056 | 13 | 261 | 0.0 | 6.4 | 0.00 | 0.00 | 0.00 | 51 | 1010.0 |
| 20260508041540 | 14 | 40 | 0.0 | 0.0 | 0.00 | 0.00 | 0.00 | 44 | 1009.9 |
| 20260508040039 | 15 | 40 | 0.0 | 3.2 | 0.00 | 0.00 | 0.00 | 44 | 1010.0 |
| 20260508034540 | 13 | 31 | 1.6 | 4.8 | 0.00 | 0.00 | 0.00 | 44 | 1009.9 |
| 20260508033039 | 13 | 31 | 0.0 | 0.0 | 0.00 | 0.00 | 0.00 | 49 | 1009.8 |
| 20260508031545 | 14 | 31 | 0.0 | 1.6 | 0.00 | 0.00 | 0.00 | 47 | 1009.7 |
| 20260508030049 | 15 | 31 | 0.0 | 0.0 | 0.00 | 0.00 | 0.00 | 43 | 1009.6 |
| 20260508024536 | 15 | 31 | 0.0 | 4.8 | 0.00 | 0.00 | 0.00 | 41 | 1009.5 |
| 20260508023042 | 15 | 31 | 0.0 | 0.0 | 0.00 | 0.00 | 0.00 | 39 | 1009.2 |
| 20260508021538 | 16 | 31 | 0.0 | 1.6 | 0.00 | 0.00 | 0.00 | 40 | 1009.1 |
| 20260508020035 | 17 | 15 | 1.6 | 3.2 | 0.00 | 0.00 | 0.00 | 37 | 1009.1 |
| 20260508014534 | 18 | 15 | 0.0 | 0.0 | 0.00 | 0.00 | 0.00 | 31 | 1008.7 |
| 20260508013033 | 19 | 331 | 4.8 | 12.9 | 0.00 | 0.00 | 0.00 | 28 | 1008.5 |
| 20260508011532 | 19 | 257 | 0.0 | 4.8 | 0.00 | 0.00 | 0.00 | 28 | 1008.8 |
| 20260508010031 | 19 | 78 | 1.6 | 16.1 | 0.00 | 0.00 | 0.00 | 28 | 1008.9 |
| 20260508004529 | 19 | 98 | 9.7 | 17.7 | 0.00 | 0.00 | 0.00 | 27 | 1009.0 |
| 20260508003027 | 20 | 59 | 6.4 | 17.7 | 0.00 | 0.00 | 0.00 | 28 | 1009.3 |
| 20260508001528 | 20 | 88 | 8.0 | 16.1 | 0.00 | 0.00 | 0.00 | 27 | 1009.3 |
| 20260508000024 | 20 | 91 | 9.7 | 17.7 | 0.00 | 0.00 | 0.00 | 25 | 1009.6 |
| 20260507234524 | 20 | 76 | 9.7 | 16.1 | 0.00 | 0.00 | 0.00 | 24 | 1009.6 |
| 20260507233024 | 20 | 53 | 16.1 | 20.9 | 0.00 | 0.00 | 0.00 | 24 | 1009.7 |
| 20260507231526 | 21 | 11 | 4.8 | 11.3 | 0.00 | 0.00 | 0.00 | 22 | 1010.0 |
| 20260507230021 | 22 | 291 | 1.6 | 11.3 | 0.00 | 0.00 | 0.00 | 22 | 1010.1 |
| 20260507224518 | 22 | 198 | 9.7 | 17.7 | 0.00 | 0.00 | 0.00 | 21 | 1010.2 |
| 20260507223017 | 22 | 164 | 6.4 | 17.7 | 0.00 | 0.00 | 0.00 | 21 | 1010.3 |
| 20260507221514 | 22 | 210 | 8.0 | 19.3 | 0.00 | 0.00 | 0.00 | 21 | 1010.7 |
| 20260507220012 | 22 | 105 | 3.2 | 16.1 | 0.00 | 0.08 | 0.00 | 21 | 1011.0 |
| 20260507214508 | 22 | 228 | 0.0 | 8.0 | 0.00 | 0.08 | 0.00 | 21 | 1011.5 |
| 20260507213004 | 21 | 200 | 8.0 | 19.3 | 0.00 | 0.08 | 0.00 | 23 | 1011.8 |
| 20260507211503 | 21 | 222 | 3.2 | 16.1 | 0.00 | 0.08 | 0.00 | 22 | 1012.3 |
| 20260507210100 | 21 | 335 | 1.6 | 11.3 | 0.00 | 0.08 | 0.00 | 23 | 1012.7 |
| 20260507204601 | 21 | 238 | 6.4 | 17.7 | 0.00 | 0.08 | 0.00 | 23 | 1013.2 |
| 20260507203055 | 21 | 205 | 3.2 | 16.1 | 0.00 | 0.08 | 0.00 | 21 | 1013.7 |
| 20260507201601 | 20 | 221 | 4.8 | 12.9 | 0.00 | 0.08 | 0.00 | 22 | 1014.1 |
| 20260507200054 | 20 | 300 | 3.2 | 12.9 | 0.00 | 0.18 | 0.00 | 18 | 1014.5 |
| 20260507194550 | 20 | 267 | 6.4 | 16.1 | 0.00 | 0.18 | 0.00 | 21 | 1014.7 |